Location: Ferchesar
(52.6477°N, 12.4298°E)
Time: 23:25:35
(UTC+01:00)

TIGRISAT - Pass Details

Date: 20 October 2021
Orbit: 603 x 689 km, 97.7° (Epoch: 30 November)

Event Time Altitude Azimuth Distance (km) Brightness Sun altitude
Rises 21:24:41 0° 7° (N) 3,014 ? -30.6°
Reaches altitude 10° 21:27:07 10° 358° (N) 2,082 ? -30.9°
Maximum altitude 21:31:07 32° 296° (WNW) 1,127 ? -31.5°
Drops below altitude 10° 21:35:01 10° 234° (SW) 2,021 ? -32.0°
Sets 21:37:21 0° 225° (SW) 2,911 ? -32.3°
